Time,TemperatureF,DewpointF,PressureIn,WindDirection,WindDirectionDegrees,WindSpeedMPH,WindSpeedGustMPH,Humidity,HourlyPrecipIn,Conditions,Clouds,dailyrainin,SoftwareType,DateUTC
2013-08-28 00:00:00,76.9,72.7,29.97,WSW,258,0.0,0.0,87,0.00,,---,0.00,VWS V14.01,2013-08-28 04:00:00,
2013-08-28 01:00:00,76.2,73.1,29.96,WSW,257,0.0,0.0,90,0.00,,---,0.00,VWS V14.01,2013-08-28 05:00:00,
2013-08-28 03:00:00,75.1,72.9,29.94,West,260,0.0,0.0,93,0.00,,---,0.00,VWS V14.01,2013-08-28 07:00:00,
2013-08-28 04:00:00,74.5,72.3,29.95,West,260,0.0,0.0,93,0.00,,---,0.00,VWS V14.01,2013-08-28 08:00:00,
2013-08-28 05:00:00,73.5,71.7,29.95,West,261,0.0,0.0,94,0.00,,---,0.00,VWS V14.01,2013-08-28 09:00:00,
2013-08-28 06:00:00,73.3,71.5,29.95,West,260,0.0,0.0,94,0.00,,---,0.00,VWS V14.01,2013-08-28 10:00:00,
2013-08-28 07:00:00,72.9,71.4,29.96,WSW,253,0.0,0.0,95,0.00,,---,0.00,VWS V14.01,2013-08-28 11:00:00,
2013-08-28 08:00:00,72.6,70.8,29.96,WSW,258,0.0,0.0,94,0.00,,---,0.00,VWS V14.01,2013-08-28 12:00:00,
2013-08-28 09:00:00,73.8,71.7,29.96,West,270,0.0,0.0,93,0.00,,---,0.00,VWS V14.01,2013-08-28 13:00:00,
2013-08-28 11:00:00,82.8,72.9,29.95,NW,307,0.0,0.0,72,0.00,,---,0.00,VWS V14.01,2013-08-28 15:00:00,
2013-08-28 12:00:00,87.5,73.4,29.94,West,272,0.0,0.0,63,0.00,,---,0.00,VWS V14.01,2013-08-28 16:00:00,
2013-08-28 13:00:00,92.1,74.2,29.93,WSW,257,0.0,0.0,56,0.00,,---,0.00,VWS V14.01,2013-08-28 17:00:00,
2013-08-28 14:00:00,94.4,72.9,29.93,WSW,256,0.0,0.0,50,0.00,,---,0.00,VWS V14.01,2013-08-28 18:00:00,
2013-08-28 15:00:00,95.9,73.7,29.92,West,277,0.0,0.0,49,0.00,,---,0.00,VWS V14.01,2013-08-28 19:00:00,
2013-08-28 16:00:00,96.2,73.9,29.91,WNW,299,0.0,0.0,49,0.00,,---,0.00,VWS V14.01,2013-08-28 20:00:00,
2013-08-28 17:00:00,95.7,74.1,29.90,West,274,0.0,0.0,50,0.00,,---,0.00,VWS V14.01,2013-08-28 21:00:00,
2013-08-28 19:00:00,91.9,72.9,29.90,West,264,0.0,0.0,54,0.00,,---,0.00,VWS V14.01,2013-08-28 23:00:00,
2013-08-28 20:00:00,88.4,73.7,29.90,WSW,247,0.0,0.0,62,0.00,,---,0.00,VWS V14.01,2013-08-29 00:00:00,
2013-08-28 21:00:00,84.9,73.2,29.91,West,270,0.0,0.0,68,0.00,,---,0.00,VWS V14.01,2013-08-29 01:00:00,
2013-08-28 22:00:00,82.3,72.8,29.92,West,270,0.0,0.0,73,0.00,,---,0.00,VWS V14.01,2013-08-29 02:00:00,
2013-08-28 23:00:00,81.5,72.8,29.93,West,272,0.0,0.0,75,0.00,,---,0.00,VWS V14.01,2013-08-29 03:00:00,